Weather Roundup
Issued by NWS Chicago, IL

Home | Current Version | Previous Version | Graphics & Text | Print | Product List | Glossary On
Versions: 1 2 3 4 5 6 7 8 9 10 11 12 13 14 15 16 17 18 19 20 21 22 23 24 25 26 27 28 29 30 31 32 33 34 35 36 37 38 39 40 41 42 43 44 45 46 47 48 49 50
000
NZUS59 KLOT 020721
HRRLOT

CHICAGO AREA WEATHER ROUNDUP
NATIONAL WEATHER SERVICE CHICAGO/ROMEOVILLE IL
200 AM CDT WED SEP 02 2015

NOTE: "FAIR" INDICATES FEW OR NO CLOUDS BELOW 12,000 FEET WITH NO
SIGNIFICANT WEATHER AND/OR OBSTRUCTIONS TO VISIBILITY.

* THESE STATIONS ARE NOT UNDER NWS QUALITY CONTROL. THEY ALSO MAY NOT
  REPORT WEATHER SUCH AS PRECIPITATION OR FOG.

ILZ005-006-012>014-019>023-020800-
NORTHEAST ILLINOIS

CITY           SKY/WX    TMP DP  RH WIND       PRES   REMARKS
OHARE          PTCLDY    75  69  81 SW7       30.02F
MIDWAY         PTCLDY    76  68  76 SW8       30.02F
AURORA         CLEAR     72  68  87 SW6       30.04F
LANSING*       CLEAR     70  66  87 SW5       30.04F
JOLIET*        CLEAR     72  69  92 CALM      30.04S
WAUKEGAN       MOCLDY    75  70  84 SW7       30.00F
DUPAGE AIRPORT CLEAR     73  68  84 SW7       30.03F
WHEELING       PTCLDY    76  69  79 SW5       30.03F
KANKAKEE*      CLEAR     69  67  94 SW5       30.06S
MORRIS*        CLEAR     71  67  89 SW3       30.04S
LEWIS AIRPORT* CLEAR     69  67  93 SW6       30.04F
NORTHERLY IS     N/A     77  67  71 S8          N/A
$$

WIZ051-052-058>065-066-070>072-020800-
SOUTHEAST WISCONSIN

CITY           SKY/WX    TMP DP  RH WIND       PRES   REMARKS
MILWAUKEE      PTCLDY    75  70  84 SW8       30.00S
KENOSHA*       CLEAR     74  70  87 SW8       30.01F
RACINE*        PTCLDY    76  70  82 SW7       30.02S
BURLINGTON     CLEAR     66  65  97 CALM      30.01F FOG
WAUKESHA       CLEAR     70  68  94 CALM      30.02S
WEST BEND      CLEAR     72  68  88 CALM      30.00S
$$

INZ001>003-010>013-019-020-020800-
NORTHWEST INDIANA

CITY           SKY/WX    TMP DP  RH WIND       PRES   REMARKS
GARY*          CLEAR     74  67  78 CALM      30.05S
MICHIGAN CITY* NOT AVBL
RENSSELAER*    NOT AVBL
VALPARAISO     CLEAR     71  68  90 SW3       30.06F
$$

LMZ740>746-020800-
SOUTHERN LAKE MICHIGAN

STATION/POSITION TIME  SKY/WX   TEMP WIND        PRES    VSBY
                                AIR  DIR/SP/G
                 (UTC)          (F)  (DEG/KT/KT) (MB)    (MI)
HARRISON CRIB    0700            74  170/  9/ 12   N/A
BURNHAM HARBOR   0700            77  240/  8/ 12   N/A
CALUMET HARBOR   0600            76  210/  5/  8   N/A
BURNS HARBOR     0600            76  210/ 10/ 12 1017.6F
MICHIGAN CITY    0700            74  180/ 10/ 11   N/A
$$

ABBREVIATIONS USED IN REMARKS
   TC - TEMPERATURE IN CELSIUS
  WCI - WIND CHILL INDEX
   HX - HEAT INDEX
  VSB - VISIBILITY
$$



USA.gov is the U.S. government's official web portal to all federal, state and local government web resources and services.